Time,TemperatureF,DewpointF,PressureIn,WindDirection,WindDirectionDegrees,WindSpeedMPH,WindSpeedGustMPH,Humidity,HourlyPrecipIn,Conditions,Clouds,dailyrainin,SoftwareType,DateUTC
2013-07-26 00:00:00,57.0,55.3,30.09,NW,304,0.0,10.0,94,0.00,,,0.00,Wunderground v.1.15,2013-07-26 04:00:00,
2013-07-26 00:10:00,56.7,55.3,30.09,NW,304,0.0,0.0,95,0.00,,,0.00,Wunderground v.1.15,2013-07-26 04:10:00,
2013-07-26 00:20:00,56.5,55.1,30.09,NW,304,0.0,0.0,95,0.00,,,0.00,Wunderground v.1.15,2013-07-26 04:20:00,
2013-07-26 00:30:00,56.2,55.1,30.08,NW,304,0.0,0.0,96,0.00,,,0.00,Wunderground v.1.15,2013-07-26 04:30:00,
2013-07-26 00:40:00,56.0,55.2,30.08,NW,304,0.0,0.0,97,0.00,,,0.00,Wunderground v.1.15,2013-07-26 04:40:00,
2013-07-26 00:50:00,55.9,55.1,30.09,NW,304,0.0,0.0,97,0.00,,,0.00,Wunderground v.1.15,2013-07-26 04:50:00,
2013-07-26 01:00:00,55.7,55.1,30.09,NW,304,0.0,0.0,98,0.00,,,0.00,Wunderground v.1.15,2013-07-26 05:00:00,
2013-07-26 01:10:00,55.7,55.1,30.09,NW,304,0.0,3.0,98,0.00,,,0.00,Wunderground v.1.15,2013-07-26 05:10:00,
2013-07-26 01:20:00,55.6,55.0,30.08,NW,304,0.0,3.0,98,0.00,,,0.00,Wunderground v.1.15,2013-07-26 05:20:00,
2013-07-26 01:30:00,55.4,54.8,30.08,NW,304,0.0,3.0,98,0.00,,,0.00,Wunderground v.1.15,2013-07-26 05:30:00,
2013-07-26 01:40:00,55.4,55.1,30.08,NW,304,0.0,3.0,99,0.00,,,0.00,Wunderground v.1.15,2013-07-26 05:40:00,
2013-07-26 01:50:00,55.3,55.0,30.08,NW,304,0.0,3.0,99,0.00,,,0.00,Wunderground v.1.15,2013-07-26 05:50:00,
2013-07-26 02:00:00,55.4,55.1,30.08,NW,304,0.0,3.0,99,0.00,,,0.00,Wunderground v.1.15,2013-07-26 06:00:00,
2013-07-26 02:10:00,55.3,55.0,30.08,NW,304,0.0,3.0,99,0.00,,,0.00,Wunderground v.1.15,2013-07-26 06:10:00,
2013-07-26 02:20:00,55.1,54.8,30.08,NW,304,0.0,3.0,99,0.00,,,0.00,Wunderground v.1.15,2013-07-26 06:20:00,
2013-07-26 02:30:00,55.1,54.8,30.08,NW,304,0.0,3.0,99,0.00,,,0.00,Wunderground v.1.15,2013-07-26 06:30:00,
2013-07-26 02:40:00,55.1,54.8,30.08,NW,304,0.0,3.0,99,0.00,,,0.00,Wunderground v.1.15,2013-07-26 06:40:00,
2013-07-26 02:50:00,55.0,54.7,30.08,NW,304,0.0,3.0,99,0.00,,,0.00,Wunderground v.1.15,2013-07-26 06:50:00,
2013-07-26 03:00:00,55.0,54.7,30.08,NW,304,0.0,3.0,99,0.00,,,0.00,Wunderground v.1.15,2013-07-26 07:00:00,
2013-07-26 03:10:00,54.8,54.5,30.08,NW,304,0.0,3.0,99,0.00,,,0.00,Wunderground v.1.15,2013-07-26 07:10:00,
2013-07-26 03:20:00,54.7,54.4,30.08,NW,304,0.0,3.0,99,0.00,,,0.00,Wunderground v.1.15,2013-07-26 07:20:00,
2013-07-26 03:30:00,54.5,54.5,30.07,NW,304,0.0,3.0,100,0.00,,,0.00,Wunderground v.1.15,2013-07-26 07:30:00,
2013-07-26 03:40:00,54.5,54.5,30.07,NW,304,0.0,3.0,100,0.00,,,0.00,Wunderground v.1.15,2013-07-26 07:40:00,
2013-07-26 03:50:00,54.5,54.5,30.07,NW,304,0.0,3.0,100,0.00,,,0.00,Wunderground v.1.15,2013-07-26 07:50:00,
2013-07-26 04:00:00,54.4,54.4,30.07,NW,304,0.0,3.0,100,0.00,,,0.00,Wunderground v.1.15,2013-07-26 08:00:00,
2013-07-26 04:10:00,54.5,54.5,30.07,NW,304,0.0,3.0,100,0.00,,,0.00,Wunderground v.1.15,2013-07-26 08:10:00,
2013-07-26 04:20:00,54.5,54.5,30.07,NW,304,0.0,3.0,100,0.00,,,0.00,Wunderground v.1.15,2013-07-26 08:20:00,
2013-07-26 04:30:00,54.5,54.5,30.07,NW,304,0.0,3.0,100,0.00,,,0.00,Wunderground v.1.15,2013-07-26 08:30:00,
2013-07-26 04:40:00,54.4,54.4,30.07,NW,304,0.0,3.0,100,0.00,,,0.00,Wunderground v.1.15,2013-07-26 08:40:00,
2013-07-26 04:50:00,54.1,54.1,30.07,NW,304,0.0,3.0,100,0.00,,,0.00,Wunderground v.1.15,2013-07-26 08:50:00,
2013-07-26 05:00:00,54.2,54.2,30.07,NW,304,0.0,3.0,100,0.00,,,0.00,Wunderground v.1.15,2013-07-26 09:00:00,
2013-07-26 05:10:00,54.4,54.4,30.07,NW,304,0.0,3.0,100,0.00,,,0.00,Wunderground v.1.15,2013-07-26 09:10:00,
2013-07-26 05:20:00,54.4,54.4,30.08,NW,304,0.0,3.0,100,0.00,,,0.00,Wunderground v.1.15,2013-07-26 09:20:00,
2013-07-26 05:30:00,54.8,54.8,30.08,NW,304,0.0,3.0,100,0.00,,,0.00,Wunderground v.1.15,2013-07-26 09:30:00,
2013-07-26 05:40:00,55.0,55.0,30.08,NW,304,0.0,3.0,100,0.00,,,0.00,Wunderground v.1.15,2013-07-26 09:40:00,
2013-07-26 05:50:00,55.0,55.0,30.07,NW,304,0.0,3.0,100,0.00,,,0.00,Wunderground v.1.15,2013-07-26 09:50:00,
2013-07-26 06:00:00,55.0,55.0,30.08,NW,304,0.0,3.0,100,0.00,,,0.00,Wunderground v.1.15,2013-07-26 10:00:00,
2013-07-26 06:10:00,55.0,55.0,30.08,NW,304,0.0,0.0,100,0.00,,,0.00,Wunderground v.1.15,2013-07-26 10:10:00,
2013-07-26 06:20:00,55.3,55.3,30.08,SSW,198,0.0,0.0,100,0.00,,,0.00,Wunderground v.1.15,2013-07-26 10:20:00,
2013-07-26 06:30:00,55.6,55.6,30.08,SW,227,0.0,2.0,100,0.00,,,0.00,Wunderground v.1.15,2013-07-26 10:30:00,
2013-07-26 06:53:00,56.0,56.0,30.07,WNW,284,0.0,0.0,100,0.00,,,0.00,Wunderground v.1.15,2013-07-26 10:53:00,
2013-07-26 07:10:00,56.2,56.2,30.07,WNW,284,0.0,0.0,100,0.00,,,0.00,Wunderground v.1.15,2013-07-26 11:10:00,
2013-07-26 07:20:00,56.6,56.6,30.07,WNW,284,0.0,0.0,100,0.00,,,0.00,Wunderground v.1.15,2013-07-26 11:20:00,
2013-07-26 07:30:00,56.9,56.9,30.08,WNW,284,0.0,0.0,100,0.00,,,0.00,Wunderground v.1.15,2013-07-26 11:30:00,
2013-07-26 07:40:00,57.0,56.7,30.08,WNW,284,0.0,1.0,99,0.00,,,0.00,Wunderground v.1.15,2013-07-26 11:40:00,
2013-07-26 07:50:00,57.0,56.7,30.08,WNW,284,0.0,0.0,99,0.00,,,0.00,Wunderground v.1.15,2013-07-26 11:50:00,
2013-07-26 08:00:00,57.3,56.7,30.07,WNW,284,0.0,0.0,98,0.00,,,0.00,Wunderground v.1.15,2013-07-26 12:00:00,
2013-07-26 08:10:00,57.6,56.5,30.07,West,262,0.0,2.0,96,0.00,,,0.00,Wunderground v.1.15,2013-07-26 12:10:00,
2013-07-26 08:20:00,58.0,56.3,30.07,West,264,1.0,1.0,94,0.00,,,0.00,Wunderground v.1.15,2013-07-26 12:20:00,
2013-07-26 08:30:00,58.3,56.3,30.07,West,263,1.0,1.0,93,0.00,,,0.00,Wunderground v.1.15,2013-07-26 12:30:00,
2013-07-26 08:40:00,58.6,56.0,30.07,West,263,0.0,0.0,91,0.00,,,0.00,Wunderground v.1.15,2013-07-26 12:40:00,
2013-07-26 08:50:00,58.7,55.5,30.06,WNW,301,2.0,3.0,89,0.00,,,0.00,Wunderground v.1.15,2013-07-26 12:50:00,
2013-07-26 09:00:00,59.5,56.3,30.05,West,279,1.0,1.0,89,0.00,,,0.00,Wunderground v.1.15,2013-07-26 13:00:00,
2013-07-26 09:10:00,59.8,56.6,30.05,West,276,2.0,3.0,89,0.00,,,0.00,Wunderground v.1.15,2013-07-26 13:10:00,
2013-07-26 09:20:00,59.9,56.3,30.05,NW,326,2.0,4.0,88,0.00,,,0.00,Wunderground v.1.15,2013-07-26 13:20:00,
2013-07-26 09:30:00,60.1,56.2,30.05,WNW,284,2.0,2.0,87,0.00,,,0.00,Wunderground v.1.15,2013-07-26 13:30:00,
2013-07-26 09:40:00,60.4,56.5,30.05,NW,308,2.0,3.0,87,0.00,,,0.00,Wunderground v.1.15,2013-07-26 13:40:00,
2013-07-26 09:50:00,60.5,56.9,30.06,West,266,2.0,2.0,88,0.00,,,0.00,Wunderground v.1.15,2013-07-26 13:50:00,
2013-07-26 10:00:00,60.7,56.2,30.06,West,278,2.0,2.0,85,0.00,,,0.00,Wunderground v.1.15,2013-07-26 14:00:00,
2013-07-26 10:10:00,61.3,57.4,30.06,WSW,257,0.0,4.0,87,0.00,,,0.00,Wunderground v.1.15,2013-07-26 14:10:00,
2013-07-26 10:20:00,61.5,56.9,30.06,West,279,3.0,3.0,85,0.00,,,0.00,Wunderground v.1.15,2013-07-26 14:20:00,
2013-07-26 10:30:00,61.8,56.9,30.07,WSW,256,2.0,2.0,84,0.00,,,0.00,Wunderground v.1.15,2013-07-26 14:30:00,
2013-07-26 10:40:00,62.1,57.5,30.07,WSW,252,2.0,2.0,85,0.00,,,0.00,Wunderground v.1.15,2013-07-26 14:40:00,
2013-07-26 10:50:00,62.1,56.9,30.07,NW,304,1.0,7.0,83,0.00,,,0.00,Wunderground v.1.15,2013-07-26 14:50:00,
2013-07-26 11:00:00,61.6,56.7,30.07,WNW,293,2.0,2.0,84,0.00,,,0.00,Wunderground v.1.15,2013-07-26 15:00:00,
2013-07-26 11:10:00,61.6,56.7,30.07,WNW,299,1.0,3.0,84,0.00,,,0.00,Wunderground v.1.15,2013-07-26 15:10:00,
2013-07-26 11:20:00,61.8,56.9,30.06,West,270,2.0,2.0,84,0.00,,,0.00,Wunderground v.1.15,2013-07-26 15:20:00,
2013-07-26 11:30:00,62.6,57.0,30.06,West,278,2.0,2.0,82,0.00,,,0.00,Wunderground v.1.15,2013-07-26 15:30:00,
2013-07-26 11:40:00,63.1,56.5,30.06,NW,317,2.0,6.0,79,0.00,,,0.00,Wunderground v.1.15,2013-07-26 15:40:00,
2013-07-26 11:50:00,62.9,56.6,30.04,West,264,3.0,3.0,80,0.00,,,0.00,Wunderground v.1.15,2013-07-26 15:50:00,
2013-07-26 12:00:00,63.4,57.8,30.05,West,262,2.0,2.0,82,0.00,,,0.00,Wunderground v.1.15,2013-07-26 16:00:00,
2013-07-26 12:10:00,64.0,58.7,30.05,West,281,1.0,3.0,83,0.00,,,0.00,Wunderground v.1.15,2013-07-26 16:10:00,
2013-07-26 12:20:00,64.2,57.5,30.06,West,264,2.0,4.0,79,0.00,,,0.00,Wunderground v.1.15,2013-07-26 16:20:00,
2013-07-26 12:30:00,64.5,57.8,30.06,West,278,2.0,5.0,79,0.00,,,0.00,Wunderground v.1.15,2013-07-26 16:30:00,
2013-07-26 12:40:00,64.7,57.0,30.06,NW,313,4.0,4.0,76,0.00,,,0.00,Wunderground v.1.15,2013-07-26 16:40:00,
2013-07-26 12:50:00,65.3,58.6,30.05,West,280,2.0,4.0,79,0.00,,,0.00,Wunderground v.1.15,2013-07-26 16:50:00,
2013-07-26 13:00:00,65.8,58.7,30.06,NW,310,3.0,3.0,78,0.00,,,0.00,Wunderground v.1.15,2013-07-26 17:00:00,
2013-07-26 13:10:00,66.4,57.1,30.06,NW,317,2.0,9.0,72,0.00,,,0.00,Wunderground v.1.15,2013-07-26 17:10:00,
2013-07-26 13:20:00,66.4,57.5,30.05,WNW,288,2.0,9.0,73,0.00,,,0.00,Wunderground v.1.15,2013-07-26 17:20:00,
2013-07-26 13:30:00,66.0,58.2,30.04,WNW,296,3.0,3.0,76,0.00,,,0.00,Wunderground v.1.15,2013-07-26 17:30:00,
2013-07-26 13:40:00,66.6,58.4,30.04,WNW,301,2.0,2.0,75,0.00,,,0.00,Wunderground v.1.15,2013-07-26 17:40:00,
2013-07-26 13:50:00,67.3,59.5,30.04,WNW,289,2.0,2.0,76,0.00,,,0.00,Wunderground v.1.15,2013-07-26 17:50:00,
2013-07-26 14:00:00,67.1,58.2,30.03,West,273,2.0,2.0,73,0.00,,,0.00,Wunderground v.1.15,2013-07-26 18:00:00,
2013-07-26 14:10:00,66.9,58.3,30.03,West,278,2.0,9.0,74,0.00,,,0.00,Wunderground v.1.15,2013-07-26 18:10:00,
2013-07-26 14:20:00,67.6,59.0,30.02,West,262,2.0,2.0,74,0.00,,,0.00,Wunderground v.1.15,2013-07-26 18:20:00,
2013-07-26 14:30:00,68.3,60.1,30.03,WNW,283,1.0,9.0,75,0.00,,,0.00,Wunderground v.1.15,2013-07-26 18:30:00,
2013-07-26 14:40:00,68.3,58.5,30.03,NW,308,3.0,3.0,71,0.00,,,0.00,Wunderground v.1.15,2013-07-26 18:40:00,
2013-07-26 14:50:00,67.9,58.5,30.03,NW,318,3.0,9.0,72,0.00,,,0.00,Wunderground v.1.15,2013-07-26 18:50:00,
2013-07-26 15:00:00,67.6,57.9,30.02,NW,315,4.0,9.0,71,0.00,,,0.00,Wunderground v.1.15,2013-07-26 19:00:00,
2013-07-26 15:10:00,67.8,58.8,30.02,WNW,282,2.0,2.0,73,0.00,,,0.00,Wunderground v.1.15,2013-07-26 19:10:00,
2013-07-26 15:20:00,68.4,58.6,30.02,West,277,1.0,9.0,71,0.00,,,0.00,Wunderground v.1.15,2013-07-26 19:20:00,
2013-07-26 15:30:00,68.8,58.2,30.03,NNW,339,1.0,9.0,69,0.00,,,0.00,Wunderground v.1.15,2013-07-26 19:30:00,
2013-07-26 15:40:00,69.4,60.4,30.03,NW,308,1.0,1.0,73,0.00,,,0.00,Wunderground v.1.15,2013-07-26 19:40:00,
2013-07-26 15:50:00,70.8,58.0,30.03,West,266,2.0,2.0,64,0.00,,,0.00,Wunderground v.1.15,2013-07-26 19:50:00,
2013-07-26 16:00:00,70.6,59.1,30.02,WNW,288,2.0,9.0,67,0.00,,,0.00,Wunderground v.1.15,2013-07-26 20:00:00,
2013-07-26 16:10:00,70.3,57.1,30.02,NW,305,3.0,3.0,63,0.00,,,0.00,Wunderground v.1.15,2013-07-26 20:10:00,
2013-07-26 16:20:00,71.3,58.5,30.02,NW,325,1.0,9.0,64,0.00,,,0.00,Wunderground v.1.15,2013-07-26 20:20:00,
2013-07-26 16:30:00,71.3,58.5,30.02,WNW,291,2.0,2.0,64,0.00,,,0.00,Wunderground v.1.15,2013-07-26 20:30:00,
2013-07-26 16:40:00,70.9,58.5,30.02,WSW,245,3.0,9.0,65,0.00,,,0.00,Wunderground v.1.15,2013-07-26 20:40:00,
2013-07-26 16:50:00,70.6,59.1,30.02,West,274,2.0,9.0,67,0.00,,,0.00,Wunderground v.1.15,2013-07-26 20:50:00,
2013-07-26 17:00:00,70.8,58.9,30.02,West,259,3.0,9.0,66,0.00,,,0.00,Wunderground v.1.15,2013-07-26 21:00:00,
2013-07-26 17:10:00,71.8,60.2,30.02,WSW,243,3.0,9.0,67,0.00,,,0.00,Wunderground v.1.15,2013-07-26 21:10:00,
2013-07-26 17:20:00,72.1,58.4,30.02,WSW,256,2.0,9.0,62,0.00,,,0.00,Wunderground v.1.15,2013-07-26 21:20:00,
2013-07-26 17:30:00,72.3,58.5,30.01,West,262,3.0,9.0,62,0.00,,,0.00,Wunderground v.1.15,2013-07-26 21:30:00,
2013-07-26 17:40:00,72.3,57.6,30.01,West,281,3.0,3.0,60,0.00,,,0.00,Wunderground v.1.15,2013-07-26 21:40:00,
2013-07-26 17:50:00,72.3,58.1,30.01,West,270,3.0,3.0,61,0.00,,,0.00,Wunderground v.1.15,2013-07-26 21:50:00,
2013-07-26 18:00:00,72.0,56.9,30.00,NW,314,3.0,3.0,59,0.00,,,0.00,Wunderground v.1.15,2013-07-26 22:00:00,
2013-07-26 18:10:00,71.6,57.0,30.00,West,260,3.0,3.0,60,0.00,,,0.00,Wunderground v.1.15,2013-07-26 22:10:00,
2013-07-26 18:20:00,71.1,56.5,30.00,West,276,3.0,4.0,60,0.00,,,0.00,Wunderground v.1.15,2013-07-26 22:20:00,
2013-07-26 18:30:00,71.1,57.9,30.00,WNW,293,2.0,2.0,63,0.00,,,0.00,Wunderground v.1.15,2013-07-26 22:30:00,
2013-07-26 18:40:00,70.9,57.2,30.00,West,281,2.0,3.0,62,0.00,,,0.00,Wunderground v.1.15,2013-07-26 22:40:00,
2013-07-26 18:50:00,70.8,57.6,30.00,WNW,284,2.0,2.0,63,0.00,,,0.00,Wunderground v.1.15,2013-07-26 22:50:00,
2013-07-26 19:00:00,69.9,57.6,30.01,West,276,2.0,2.0,65,0.00,,,0.00,Wunderground v.1.15,2013-07-26 23:00:00,
2013-07-26 19:10:00,69.4,57.1,30.01,NW,304,2.0,2.0,65,0.00,,,0.00,Wunderground v.1.15,2013-07-26 23:10:00,
2013-07-26 19:20:00,68.9,57.9,30.01,NW,320,0.0,11.0,68,0.00,,,0.00,Wunderground v.1.15,2013-07-26 23:20:00,
2013-07-26 19:30:00,68.6,58.0,30.01,NW,314,1.0,1.0,69,0.00,,,0.00,Wunderground v.1.15,2013-07-26 23:30:00,
2013-07-26 19:40:00,68.1,59.5,30.01,NW,315,0.0,11.0,74,0.00,,,0.00,Wunderground v.1.15,2013-07-26 23:40:00,
2013-07-26 19:50:00,67.4,59.9,30.01,NW,315,0.0,11.0,77,0.00,,,0.00,Wunderground v.1.15,2013-07-26 23:50:00,
2013-07-26 20:00:00,66.3,59.2,30.01,NW,314,0.0,11.0,78,0.00,,,0.00,Wunderground v.1.15,2013-07-27 00:00:00,
2013-07-26 20:10:00,65.2,59.6,30.01,NW,314,0.0,11.0,82,0.00,,,0.00,Wunderground v.1.15,2013-07-27 00:10:00,
2013-07-26 20:20:00,64.5,58.9,30.01,NW,314,0.0,11.0,82,0.00,,,0.00,Wunderground v.1.15,2013-07-27 00:20:00,
2013-07-26 20:30:00,64.0,58.7,30.00,NW,314,0.0,11.0,83,0.00,,,0.00,Wunderground v.1.15,2013-07-27 00:30:00,
2013-07-26 20:40:00,63.2,59.3,30.00,NW,315,0.0,11.0,87,0.00,,,0.00,Wunderground v.1.15,2013-07-27 00:40:00,
2013-07-26 20:50:00,62.4,59.1,30.01,NW,314,0.0,11.0,89,0.00,,,0.00,Wunderground v.1.15,2013-07-27 00:50:00,
2013-07-26 21:00:00,61.3,58.3,30.02,NW,314,0.0,11.0,90,0.00,,,0.00,Wunderground v.1.15,2013-07-27 01:00:00,
2013-07-26 21:10:00,61.2,58.9,30.02,NW,314,0.0,11.0,92,0.00,,,0.00,Wunderground v.1.15,2013-07-27 01:10:00,
2013-07-26 21:20:00,60.7,58.7,30.02,NW,314,0.0,11.0,93,0.00,,,0.00,Wunderground v.1.15,2013-07-27 01:20:00,
2013-07-26 21:30:00,60.4,58.7,30.03,NW,315,0.0,11.0,94,0.00,,,0.00,Wunderground v.1.15,2013-07-27 01:30:00,
2013-07-26 21:40:00,60.2,58.8,30.03,NW,315,0.0,11.0,95,0.00,,,0.00,Wunderground v.1.15,2013-07-27 01:40:00,
2013-07-26 21:50:00,59.9,58.5,30.03,NW,314,0.0,11.0,95,0.00,,,0.00,Wunderground v.1.15,2013-07-27 01:50:00,
2013-07-26 22:00:00,59.3,57.9,30.03,NW,314,0.0,11.0,95,0.00,,,0.00,Wunderground v.1.15,2013-07-27 02:00:00,
2013-07-26 22:10:00,59.6,58.7,30.03,NW,315,0.0,11.0,97,0.00,,,0.00,Wunderground v.1.15,2013-07-27 02:10:00,
2013-07-26 22:20:00,59.5,58.6,30.03,NW,315,0.0,11.0,97,0.00,,,0.00,Wunderground v.1.15,2013-07-27 02:20:00,
2013-07-26 22:30:00,59.2,58.3,30.03,NW,314,0.0,11.0,97,0.00,,,0.00,Wunderground v.1.15,2013-07-27 02:30:00,
2013-07-26 22:40:00,58.7,57.9,30.03,NW,315,0.0,11.0,97,0.00,,,0.00,Wunderground v.1.15,2013-07-27 02:40:00,
2013-07-26 22:50:00,58.9,58.3,30.03,NW,314,0.0,11.0,98,0.00,,,0.00,Wunderground v.1.15,2013-07-27 02:50:00,
2013-07-26 23:00:00,59.0,58.4,30.03,NW,315,0.0,11.0,98,0.00,,,0.00,Wunderground v.1.15,2013-07-27 03:00:00,
2013-07-26 23:10:00,58.9,58.3,30.03,NW,315,0.0,11.0,98,0.00,,,0.00,Wunderground v.1.15,2013-07-27 03:10:00,
2013-07-26 23:20:00,58.3,57.7,30.03,NW,314,0.0,11.0,98,0.00,,,0.00,Wunderground v.1.15,2013-07-27 03:20:00,
2013-07-26 23:30:00,58.0,57.4,30.03,NW,314,0.0,11.0,98,0.00,,,0.00,Wunderground v.1.15,2013-07-27 03:30:00,
2013-07-26 23:40:00,57.8,57.5,30.03,NW,314,0.0,11.0,99,0.00,,,0.00,Wunderground v.1.15,2013-07-27 03:40:00,
2013-07-26 23:50:00,58.0,57.7,30.03,NW,314,0.0,11.0,99,0.00,,,0.00,Wunderground v.1.15,2013-07-27 03:50:00,